TimeCDT,TemperatureF,Dew PointF,Humidity,Sea Level PressureIn,VisibilityMPH,Wind Direction,Wind SpeedMPH,Gust SpeedMPH,PrecipitationIn,Events,Conditions,WindDirDegrees,DateUTC
12:53 AM,34.0,28.0,79,30.11,10.0,East,3.5,-,N/A,,Clear,80,2011-10-20 05:53:00
1:53 AM,32.0,27.0,82,30.11,10.0,ENE,3.5,-,N/A,,Clear,70,2011-10-20 06:53:00
2:53 AM,32.0,25.0,75,30.11,10.0,East,3.5,-,N/A,,Clear,80,2011-10-20 07:53:00
3:53 AM,30.0,24.1,79,30.11,10.0,Calm,Calm,-,N/A,,Clear,0,2011-10-20 08:53:00
4:53 AM,28.9,24.1,82,30.10,10.0,Calm,Calm,-,N/A,,Clear,0,2011-10-20 09:53:00
5:53 AM,28.0,24.1,85,30.10,10.0,Calm,Calm,-,N/A,,Clear,0,2011-10-20 10:53:00
6:53 AM,27.0,23.0,85,30.11,10.0,Calm,Calm,-,N/A,,Clear,0,2011-10-20 11:53:00
7:53 AM,27.0,23.0,85,30.12,10.0,Calm,Calm,-,N/A,,Clear,0,2011-10-20 12:53:00
8:53 AM,30.0,25.0,82,30.13,10.0,East,4.6,-,N/A,,Clear,90,2011-10-20 13:53:00
9:53 AM,34.0,26.1,73,30.14,10.0,East,5.8,-,N/A,,Clear,90,2011-10-20 14:53:00
11:53 AM,45.0,28.9,53,30.12,10.0,SE,6.9,-,N/A,,Clear,130,2011-10-20 16:53:00
12:53 PM,50.0,28.0,43,30.09,10.0,ESE,10.4,-,N/A,,Clear,110,2011-10-20 17:53:00
1:53 PM,54.0,30.0,40,30.06,10.0,SE,8.1,-,N/A,,Clear,140,2011-10-20 18:53:00
3:53 PM,57.9,30.0,35,30.03,10.0,South,3.5,-,N/A,,Clear,170,2011-10-20 20:53:00
4:53 PM,59.0,30.9,35,30.03,10.0,South,3.5,-,N/A,,Clear,170,2011-10-20 21:53:00
5:53 PM,59.0,30.9,35,30.04,10.0,SSE,4.6,-,N/A,,Clear,160,2011-10-20 22:53:00
7:53 PM,48.0,32.0,54,30.08,10.0,East,5.8,-,N/A,,Clear,100,2011-10-21 00:53:00
8:53 PM,46.0,32.0,58,30.09,10.0,East,4.6,-,N/A,,Clear,100,2011-10-21 01:53:00
9:53 PM,43.0,32.0,65,30.10,10.0,SE,3.5,-,N/A,,Clear,130,2011-10-21 02:53:00
10:53 PM,44.1,30.9,60,30.11,10.0,Calm,Calm,-,N/A,,Clear,0,2011-10-21 03:53:00
11:53 PM,44.1,30.0,58,30.10,10.0,SSE,3.5,-,N/A,,Clear,150,2011-10-21 04:53:00